Tracking 29042 objects as of 20-Jun-2024
HD Live streaming from Space Station
objects crossing your sky now

COSMOS 2494 (SKRL 756)

Track COSMOS 2494 (SKRL 756) now!
10-day predictions
COSMOS 2494 (SKRL 756) is classified as:


NORAD ID: 39491
Int'l Code: 2013-078B
Perigee: 571.3 km
Apogee: 600.0 km
Inclination: 82.4 °
Period: 96.2 minutes
Semi major axis: 6956 km
RCS: Unknown
Launch date: December 28, 2013
Source: Commonwealth of Independent States (former USSR) (CIS)
Launch site: PLESETSK MISSILE AND SPACE COMPLEX (PKMTR)
Your satellite tracking list
Your tracking list is empty




NASA's NSSDC Master Catalog

Two Line Element Set (TLE):
1 39491U 13078B   24172.61243641  .00003474  00000-0  30437-3 0  9996
2 39491  82.4162 240.2568 0020588 139.7863 220.4886 14.96243619569801
Source of the keplerian elements: AFSPC